This is the latest recevied weather packets stored in our database for station/object NK0Z-13. If no packets are shown the sender has not sent any weather packets the latest 1 day(s).
| Time | Temp. | Humidity | Pressure | Rain* | Wind** | Luminosity | Snow |
|---|---|---|---|---|---|---|---|
| 1777984140 | 10.56° C | 59% | 1012 hPa | 0 mm | 2.24 m/s, 71° | 33 W/m² | - |
| 1777983540 | 10.56° C | 60% | 1011.7 hPa | 0 mm | 2.24 m/s, 54° | 20 W/m² | - |
| 1777982938 | 10.56° C | 60% | 1011.4 hPa | 0 mm | 3.13 m/s, 73° | 11 W/m² | - |
| 1777982334 | 10.56° C | 60% | 1011.8 hPa | 0 mm | 2.68 m/s, 22° | 7 W/m² | - |
| 1777981729 | 11.11° C | 59% | 1011.4 hPa | 0 mm | 2.68 m/s, 81° | 3 W/m² | - |
| 1777981127 | 10.56° C | 59% | 1011.6 hPa | 0 mm | 2.68 m/s, 63° | 1 W/m² | - |
| 1777980525 | 11.11° C | 59% | 1011.6 hPa | 0 mm | 1.34 m/s, 357° | 0 W/m² | - |
| 1777979925 | 11.11° C | 59% | 1011.2 hPa | 0 mm | 3.58 m/s, 57° | 0 W/m² | - |
| 1777979322 | 11.11° C | 58% | 1010.9 hPa | 0 mm | 4.47 m/s, 81° | 0 W/m² | - |
| 1777978721 | 11.11° C | 58% | 1010.5 hPa | 0 mm | 2.68 m/s, 94° | 0 W/m² | - |
| 1777978119 | 11.11° C | 58% | 1010.2 hPa | 0 mm | 6.71 m/s, 60° | 0 W/m² | - |
| 1777977519 | 11.11° C | 58% | 1009.9 hPa | 0 mm | 3.13 m/s, 59° | 0 W/m² | - |
| 1777976914 | 11.11° C | 59% | 1009.7 hPa | 0 mm | 5.36 m/s, 80° | 0 W/m² | - |
| 1777976313 | 11.67° C | 59% | 1009.4 hPa | 0 mm | 3.13 m/s, 44° | 0 W/m² | - |
| 1777975710 | 11.67° C | 58% | 1009.3 hPa | 0 mm | 1.79 m/s, 52° | 0 W/m² | - |
| 1777975108 | 11.67° C | 60% | 1009.7 hPa | 0 mm | 3.58 m/s, 59° | 0 W/m² | - |
| 1777974507 | 11.67° C | 64% | 1009.7 hPa | 0 mm | 1.34 m/s, 50° | 0 W/m² | - |
| 1777973905 | 11.67° C | 63% | 1009.3 hPa | 0 mm | 3.58 m/s, 83° | 0 W/m² | - |
| 1777973300 | 11.67° C | 61% | 1009.3 hPa | 0 mm | 2.24 m/s, 110° | 0 W/m² | - |
| 1777972695 | 11.67° C | 63% | 1009.5 hPa | 0 mm | 2.24 m/s, 68° | 0 W/m² | - |
| 1777972091 | 11.11° C | 68% | 1009.1 hPa | 0 mm | 3.58 m/s, 10° | 0 W/m² | - |
| 1777971486 | 11.67° C | 67% | 1008.7 hPa | 0 mm | 2.68 m/s, 58° | 0 W/m² | - |
| 1777970881 | 11.67° C | 65% | 1008.6 hPa | 0 mm | 4.02 m/s, 69° | 0 W/m² | - |
| 1777970276 | 11.67° C | 65% | 1008.4 hPa | 0 mm | 2.68 m/s, 87° | 0 W/m² | - |
| 1777969676 | 12.22° C | 66% | 1008.8 hPa | 0 mm | 2.24 m/s, 77° | 0 W/m² | - |
* Rain latest hour (hover to see other rain measurements)
** Current wind speed in m/s (hover to see current wind gust speed)